* Astronomy

Members Login
Username 
 
Password 
    Remember Me  
Post Info TOPIC: Asteroid 2011 BV59


L

Posts: 131433
Date:
RE: Asteroid 2011 BV59
Permalink  
 


Object
Name
Close
Approach
Date
Miss
Distance
(AU)
Miss
Distance
(LD)
Estimated
Diameter*
H
(mag)
Relative
Velocity
(km/s)
(2011 BV59) 2011-Feb-11 0.0178 6.9 11 m - 24 m 27.0 10.43


__________________


L

Posts: 131433
Date:
Permalink  
 

Orbital elements:
2011 BV59 Earth MOID = 0.0168 AU
Epoch 2011 Feb. 8.0 TT = JDT 2455600.5 MPC
M 349.21197 (2000.0) P Q
n 0.34343128 Peri. 226.20113 -0.99790153 -0.01808280
a 2.0194952 Node 312.65832 +0.04414186 -0.89248392
e 0.5400303 Incl. 4.84975 -0.04737133 -0.45071662
P 2.87 H 26.7 G 0.15 U 5

MPEC 2011 - D08


__________________
Page 1 of 1  sorted by
 
Quick Reply

Please log in to post quick replies.



Create your own FREE Forum
Report Abuse
Powered by ActiveBoard